Location: G�ppingen
(48.7089°N, 9.6563°E)
Time: 16:41:25
(UTC+02:00)

M-CUBED/EXP-1 PRIME - Pass Details

Date: 27 March 2019
Orbit: 430 x 671 km, 101.7° (Epoch: 24 April)

Event Time Altitude Azimuth Distance (km) Brightness Sun altitude
Rises 20:12:58 0° 25° (NNE) 2,979 ? -15.0°
Reaches altitude 10° 20:15:16 10° 32° (NNE) 2,084 ? -15.4°
Maximum altitude 20:19:37 42° 104° (ESE) 951 ? -16.0°
Drops below altitude 10° 20:23:59 10° 175° (S) 2,096 ? -16.7°
Sets 20:26:18 0° 183° (S) 2,997 ? -17.0°
